Regional Weather Roundup
Issued by NWS Upton, NY

Current Version | Previous Version | Text Only | Print | Product List | Glossary On
Versions: 1 2 3 4 5 6 7 8 9 10 11 12 13 14 15 16 17 18 19 20 21 22 23 24 25 26 27 28 29 30 31 32 33 34 35 36 37 38 39 40 41 42 43 44 45 46 47 48 49 50
000
ASUS41 KOKX 012304
RWROKX

REGIONAL WEATHER ROUNDUP
NATIONAL WEATHER SERVICE NEW YORK NY
700 PM EDT TUE SEP 01 2015

NOTE: "FAIR" INDICATES FEW OR NO CLOUDS BELOW 12,000 FEET WITH NO
SIGNIFICANT WEATHER AND/OR OBSTRUCTIONS TO VISIBILITY.

NYZ071-072-176-178-NJZ106-104-020000-
NEW YORK CITY METRO AREA


CITY           SKY/WX    TMP DP  RH WIND       PRES   REMARKS
CENTRAL PARK   CLEAR     81  63  54 CALM      30.04R
LAGUARDIA APRT PTCLDY    81  63  54 S8        30.01R
KENNEDY INTL   CLEAR     79  64  60 SE7       30.03S
NEWARK/LIBERTY PTCLDY    81  66  60 S7        30.01R
BRNX BOT. GARD   N/A     81  64  57 S10       30.03R
TETERBORO      CLEAR     82  65  56 SW13      29.99S
$$

NYZ177-179-078>081-020000-
LONG ISLAND NEW YORK

CITY           SKY/WX    TMP DP  RH WIND       PRES   REMARKS
FARMINGDALE    CLEAR     79  62  56 SE7       30.02S
ISLIP          PTCLDY    77  61  57 S8        30.01S
SHIRLEY        CLEAR     77  65  66 S6        30.03S
WESTHAMPTON    CLEAR     76  66  71 CALM      30.05R
MONTAUK POINT    N/A     75  66  73 S5        30.04S
$$

NYZ052-065-067-020000-
HUDSON VALLEY

CITY           SKY/WX    TMP DP  RH WIND       PRES   REMARKS
WHITE PLAINS   PTCLDY    80  64  58 S6        30.02S
NEWBURGH       CLEAR     82  61  47 CALM      30.04S
MONTGOMERY     CLEAR     81  65  58 CALM      30.02S
POUGHKEEPSIE   CLEAR     82  63  52 CALM      30.00S
ALBANY         PTCLDY    82  63  52 NW6       30.01R
$$

NJZ001-105-106-008-010-013-015-019>022-104-020000-
NEW JERSEY

CITY           SKY/WX    TMP DP  RH WIND       PRES   REMARKS
NEWARK/LIBERTY PTCLDY    81  66  60 S7        30.01R
TETERBORO      CLEAR     82  65  56 SW13      29.99S
CALDWELL       CLEAR     83  63  50 S8        30.01R
MORRISTOWN     MOCLDY    84  66  54 S6        30.02R
SOMERVILLE     CLEAR     86  62  44 CALM      29.99R
SUSSEX         CLEAR     79  64  60 CALM      30.04S
ANDOVER          N/A     76  67  73 CALM      30.04S
TRENTON        MOCLDY    83  67  58 SE10      30.01R
MILLVILLE      CLEAR     82  72  71 VRB3      30.01R
ATLANTIC CITY    N/A     78  72  81 E8        30.02S
WRIGHTSTOWN    CLEAR     80  68  67 S6        30.00R
TOMS RIVER     CLEAR     79  68  69 SE5       30.03S
BELMAR         PTCLDY    79  64  61 S3        30.03S
$$

PAZ047>061-062-071-020000-
EASTERN PENNSYLVANIA

CITY           SKY/WX    TMP DP  RH WIND       PRES   REMARKS
PHILADELPHIA   PTCLDY    86  70  58 SE9       30.00R HX  90
ALLENTOWN      CLEAR     85  65  51 SE6       30.02S
SCRANTON       CLEAR     81  65  58 CALM      30.04S
$$

CTZ002-004>006-009-010-012-RIZ004-006-007-MAZ004-011-015-020000-
SOUTHERN NEW ENGLAND
 IN CT

CITY           SKY/WX    TMP DP  RH WIND       PRES   REMARKS
BRADLEY INTL   CLEAR     82  58  43 CALM      30.00S
HARTFORD       CLEAR     80  60  50 E3        30.00S
DANBURY        CLEAR     80  61  52 CALM      30.04R
WTRBRY/OXFORD  PTCLDY    81  63  54 S6        30.06S
BRIDGEPORT     CLEAR     82  67  60 S7        30.01S
MERIDEN        CLEAR     82  60  47 S6        30.01R
NEW HAVEN      CLEAR     79  67  66 SE6       30.02S
CHESTER        NOT AVBL
GROTON         CLEAR     73  68  84 CALM      30.02F
WILLIMANTIC    CLEAR     79  62  56 S7        30.02R

 IN RI

CITY           SKY/WX    TMP DP  RH WIND       PRES   REMARKS
PROVIDENCE     PTCLDY    76  65  68 S7        30.03R
BLOCK ISLAND   CLEAR     73  66  78 S5        30.04S
WESTERLY       CLEAR     74  65  73 S3        30.03F

 IN MA

CITY           SKY/WX    TMP DP  RH WIND       PRES   REMARKS
BOSTON         CLEAR     71  63  75 E8        30.02S
WORCESTER      CLEAR     76  58  53 W6        30.05S
WESTFIELD      CLEAR     79  59  50 S3        30.01S
PROVINCETOWN     N/A     70  57  64 S6        30.03S
NANTUCKET      CLEAR     70  63  78 E5        30.03S
$$

ANZ330-335-338-340-345-350-353-355-020000-
COASTAL MARINE OBSERVATIONS


STATION/POSITION TIME  SKY/WX   TEMP    WIND        PRES    VSBY  WAVE
                                AIR SEA DIR/SP/G                  HT/PER
                 (UTC)          (F)     (DEG/KT/KT) (MB)    (MI)  (FT/S)
NY HARB ENTRANCE 2150            77 77  150/ 10/ 10 1016.1          2/ 8
4S FIRE IS       NOT AVBL
20S FIRE ISLAND  2150            75 76  130/  6/  8 1016.5          2/ 8
GREAT SOUTH BAY  2230            76 79  190/  6/  8   N/A
23SW MTP         2250            73 73  140/  6/  6 1016.4
HUDSON CANYON    NOT AVBL
KINGS POINT      2200            82 75  190/  8/  9 1015.4
EXECUTION ROCKS  2200            81     170/  8/ 10   N/A
CENTRAL LI SOUND NOT AVBL
EASTERN LI SOUND 2200            74 71  170/  4/  6   N/A
ROBBINS REEF     2200            76     170/ 13/ 14 1015.0
$$


>>>>>>>>>>>>>>>>>>>>>>>>>>>> KEY <<<<<<<<<<<<<<<<<<<<<<<<<<<
>                                                          <
>     SKY/WX - SKY CONDITION/PRESENT WEATHER               <
>     TMP    - TEMPERATURE IN FAHRENHEIT                   <
>     DP     - DEWPOINT IN FAHRENHEIT                      <
>     RH     - RELATIVE HUMIDITY IN PERCENT                <
>     WIND   - DIRECTION AND SPEED IN MPH                  <
>     PRES   - MEAN SEA LEVEL PRESSURE IN INCHES OF HG     <
>     WCI    - WIND CHILL INDEX                            <
>     VSB    - VISIBILITY IN MILES                         <
>     HX     - HEAT INDEX                                  <
>     TC     - TEMPERATURE IN CELSIUS                      <
>     VRB    - VARIABLE WIND DIRECTION                     <
>                                                          <
>>>>>>>>>>>>>>>>>>>>>>>>>>>> KEY <<<<<<<<<<<<<<<<<<<<<<<<<<<




USA.gov is the U.S. government's official web portal to all federal, state and local government web resources and services.